AirNav   Air Wisconsin Up To $57,000 Bonus
 
 851 users online  

KTQH Tahlequah Municipal Airport
Tahlequah, Oklahoma, USA

GOING TO TAHLEQUAH?


FAA INFORMATION EFFECTIVE 02 DECEMBER 2021

Location

FAA Identifier: TQH
Lat/Long: 35-55-49.0000N 095-00-16.3000W
35-55.816667N 095-00.271667W
35.9302778,-95.0045278
(estimated)
Elevation: 874.1 ft. / 266.4 m (surveyed)
Variation: 05E (1995)
From city: 2 miles NW of TAHLEQUAH, OK
Time zone: UTC -6 (UTC -5 during Daylight Saving Time)
Zip code: 74464

Airport Operations

Airport use: Open to the public
Activation date: 10/1948
Control tower: no
ARTCC: MEMPHIS CENTER
FSS: MC ALESTER FLIGHT SERVICE STATION
NOTAMs facility: TQH (NOTAM-D service available)
Attendance: MON-SAT 0800-1700
Wind indicator: yes
Segmented circle: yes
Lights: ACTVT MIRL RY 17/35 AND REIL RY 17 & 35 - CTAF. PAPI RYS 17 & 35 OPER CONTINUOUSLY.
Beacon: white-green (lighted land airport)
Operates sunset to sunrise.

Airport Communications

CTAF/UNICOM: 122.8
WX AWOS-3P: 118.425 (918-453-2729)
  • APCH/DEP SVC PRVDD BY MEMPHIS ARTCC ON FREQS 126.1/269.0 (FAYETTEVILLE RCAG).

Nearby radio navigation aids

NDB name  Hdg/Dist  Freq  Var  ID
SILOAM SPRINGS234/29.528404ESLG ... .-.. --.

Airport Services

Fuel available: 100LL JET-A
Parking: hangars and tiedowns
Airframe service: MINOR
Powerplant service: MINOR
Bottled oxygen: NONE
Bulk oxygen: NONE

Runway Information

Runway 17/35

Dimensions: 5001 x 75 ft. / 1524 x 23 m
Surface: asphalt, in good condition
Weight bearing capacity: 
Single wheel: 26.0
Runway edge lights: medium intensity
RUNWAY 17  RUNWAY 35
Latitude: 35-56.228988N35-55.405447N
Longitude: 095-00.251395W095-00.290892W
Elevation: 869.4 ft.851.2 ft.
Traffic pattern: leftleft
Runway heading: 177 magnetic, 182 true357 magnetic, 002 true
Markings: nonprecision, in good conditionnonprecision, in good condition
Visual slope indicator: 4-light PAPI on left (3.50 degrees glide path)4-light PAPI on left (3.00 degrees glide path)
PAPI UNUSBL BYD 8 DEGS RIGHT OF CNTRLN.
Runway end identifier lights: yesyes
Touchdown point: yes, no lightsyes, no lights
Obstructions: 34 ft. trees, 719 ft. from runway, 150 ft. right of centerline, 15:1 slope to clear19 ft. trees, 240 ft. from runway, 112 ft. left of centerline, 2:1 slope to clear
18 FT TREE LOCATED 185 FT FM RWY END AND 120 FT LEFT OF CNTRLN.

Airport Ownership and Management from official FAA records

Ownership: Publicly-owned
Owner: CITY OF TAHLEQUAH
CITY HALL, 111 S. CHEROKEE
TAHLEQUAH, OK 74464
Phone 918-456-0561
Manager: GREG BLISH
2100 AIRPORT PARKWAY
TAHLEQUAH, OK 74464
Phone (918) 708-5600

Airport Operational Statistics

Aircraft based on the field: 36
Single engine airplanes: 31
Multi engine airplanes: 3
Jet airplanes: 2
    
Aircraft operations: avg 42/day *
56% local general aviation
44% transient general aviation
* for 12-month period ending 30 September 2021

Additional Remarks

A51-17 THLD DSPLCD 357 FT INDEFLY.
FOR CD CTC MEMPHIS ARTCC AT 901-368-8453/8449.

Instrument Procedures

NOTE: All procedures below are presented as PDF files. If you need a reader for these files, you should download the free Adobe Reader.

NOT FOR NAVIGATION. Please procure official charts for flight.
FAA instrument procedures published for use from 02 December 2021 at 0901Z to 30 December 2021 at 0900Z.

 
IAPs - Instrument Approach Procedures
RNAV (GPS) RWY 17   download (235KB)
RNAV (GPS) RWY 35   download (263KB)
NOTE: Special Alternate Minimums apply   download (21KB)
NOTE: Special Take-Off Minimums/Departure Procedures apply   download (131KB)

Other nearby airports with instrument procedures:

H68 - Hefner-Easley Airport (17 nm W)
H71 - Mid-America Industrial Airport (24 nm NW)
KMKO - Muskogee-Davis Regional Airport (24 nm SW)
KSLG - Smith Field Airport (29 nm NE)
KJSV - Sallisaw Municipal Airport (31 nm S)
 
Loc | Ops | Rwys | IFR | FBO | Links
Com | Nav | Svcs | Stats | Notes
Area around KTQH (Tahlequah Municipal Airport)
 
Road maps at: MapQuest Bing Google
 
Aerial photo
WARNING: Photo may not be current or correct
Aerial photo of KTQH (Tahlequah Municipal Airport)
Photo by Renee LaCombe
Photo taken 07-Nov-2013
looking north.

Do you have a better or more recent aerial photo of Tahlequah Municipal Airport that you would like to share? If so, please send us your photo.

 
Sectional chart

 
Airport distance calculator
Flying to Tahlequah Municipal Airport? Find the distance to fly.

From to KTQH

Sunrise and sunset
Times for 03-Dec-2021
 Local
(UTC-6)
 Zulu
(UTC)
Morning civil twilight06:4712:47
Sunrise07:1513:15
Sunset17:0523:05
Evening civil twilight17:3323:33

Current date and time
Zulu (UTC)  04-Dec-2021 02:39:29
Local (UTC-6)  03-Dec-2021 20:39:29
 
METAR
KTQH 040215Z AUTO 00000KT 7SM CLR 14/11 A3000 RMK AO2
TAF
KXNA 
40nm NE 
031739Z 0318/0418 20011KT P6SM FEW080 SCT250 FM040500 VRB04KT P6SM SCT015 BKN022 FM041200 07009KT P6SM FEW015 BKN030
KFYV 
41nm E 
031739Z 0318/0418 20011KT P6SM FEW080 SCT250 FM040500 VRB04KT P6SM SCT015 BKN022 FM041200 07009KT P6SM FEW015 BKN030
KTUL 
46nm W 
031739Z 0318/0418 19008KT P6SM SCT120 BKN250 FM040200 02005KT P6SM SCT100 BKN250 FM040600 02007KT P6SM SCT020 BKN100 FM041200 04010G18KT P6SM BKN020
KFSM 
47nm SE 
031739Z 0318/0418 19005KT P6SM FEW070 SCT250 FM040000 07003KT P6SM FEW030 SCT070 FM040500 07003KT P6SM BKN015 TEMPO 0410/0413 3SM BR BKN010 FM041300 09007KT P6SM BKN020
KRVS 
48nm W 
031739Z 0318/0418 19008KT P6SM SCT120 BKN250 FM040200 02005KT P6SM SCT100 BKN250 FM040600 02007KT P6SM SCT020 BKN100 FM041200 04010G18KT P6SM BKN020
NOTAMs
Click for the latest NOTAMs
NOTAMs are issued by the DoD/FAA and will open in a separate window not controlled by AirNav.

 

 
 

FBO, Fuel Providers, and Aircraft Ground Support

  
 Business Name 
 
 Contact 
 
 Services / Description 
 
Fuel Prices
 
Comments
  
City of Tahlequah (FBO) 918-431-4139
no information available

If you are affiliated with City of Tahlequah (FBO) and would like to show here your services, contact info, web link, logo, and more, click here
100LL Jet A
AS $4.26 $3.99 
 Updated 28-Oct-2021
 
   1 read write
AS=Assisted/Self Service
Update Fuel Prices
 

Would you like to see your business listed on this page?

 If your business provides an interesting product or service to pilots, flight crews, aircraft, or users of the Tahlequah Municipal Airport, you should consider listing it here.  To start the listing process, click on the button below
 
Add a business
 

Other Pages about Tahlequah Municipal Airport

www.cityoftahlequah.com/...
 
Update a link
 
Copyright © AirNav, LLC. All rights reserved. Privacy Policy  Contact